Date String (YYYY-MM-DD hh:mm:ss) UTC,Instrument flags,Ambient pressure (hPa),Sample flow (lpm),Bypass flow (lpm),Sample temperature (°C),Ambient temperature (°C),ASC tube jacket temperature (°C),LED temperature (°C),Box temperature (°C),Sample RH (%),Span deviation,Mass concentration (μg/m³),Mass concentration (μg/m³),Mass concentration (μg/m³)
DateTimeUTC,F1_M11,P_M11,Q1_M11,Q2_M11,T1_M11,T2_M11,T3_M11,T4_M11,T5_M11,U1_M11,ZSPAN_M11,X0_M11,X2_M11,X1_M11
2023-05-06 23:00:00,,0825.0,5.01,0.00,29.6,28.3,00.0,37.9,31.2,08.8,0000.0,0008.04,0002.96,0001.78
2023-05-06 23:01:00,,0824.9,5.01,0.00,29.6,28.3,00.0,37.9,31.2,08.7,0000.0,0008.53,0003.00,0001.80
2023-05-06 23:02:00,,0824.9,4.99,0.00,29.6,28.3,00.0,37.9,31.2,08.8,0000.0,0008.36,0002.98,0001.78
2023-05-06 23:03:00,,0824.9,5.01,0.00,29.6,28.3,00.0,37.9,31.2,08.8,0000.0,0008.31,0002.91,0001.78
2023-05-06 23:04:00,,0824.9,5.00,0.00,29.6,28.3,00.0,37.9,31.2,09.0,0000.0,0008.66,0002.92,0001.79
2023-05-06 23:05:00,,0824.8,5.01,0.00,29.6,28.3,00.0,38.0,31.2,09.0,0000.0,0008.90,0002.94,0001.79
2023-05-06 23:06:00,,0824.9,4.99,0.00,29.7,28.3,00.0,38.0,31.2,09.0,0000.0,0008.40,0002.92,0001.79
2023-05-06 23:07:00,,0824.9,5.00,0.00,29.7,28.4,00.0,38.0,31.2,08.9,0000.0,0009.46,0002.90,0001.79
2023-05-06 23:08:00,,0825.0,5.01,0.00,29.7,28.4,00.0,38.0,31.3,08.9,0000.0,0011.93,0002.96,0001.80
2023-05-06 23:09:00,,0825.1,5.00,0.00,29.7,28.4,00.0,38.0,31.3,09.0,0000.0,0013.11,0003.04,0001.81
2023-05-06 23:10:00,,0825.1,4.99,0.00,29.7,28.4,00.0,38.0,31.3,09.2,0000.0,0013.46,0003.08,0001.82
2023-05-06 23:11:00,,0825.2,5.01,0.00,29.7,28.4,00.0,38.0,31.3,09.2,0000.0,0013.80,0003.08,0001.81
2023-05-06 23:12:00,,0825.2,5.01,0.00,29.7,28.4,00.0,38.0,31.3,09.1,0000.0,0013.57,0003.10,0001.81
2023-05-06 23:13:00,,0825.2,4.99,0.00,29.7,28.4,00.0,38.0,31.3,09.3,0000.0,0013.39,0003.13,0001.81
2023-05-06 23:14:00,,0825.1,5.00,0.00,29.7,28.4,00.0,38.1,31.3,09.3,0000.0,0014.05,0003.17,0001.81
2023-05-06 23:15:00,,0825.1,5.01,0.00,29.7,28.4,00.0,38.1,31.3,09.5,0000.0,0014.69,0003.23,0001.83
2023-05-06 23:16:00,,0825.1,4.99,0.00,29.7,28.4,00.0,38.1,31.3,09.3,0000.0,0014.39,0003.25,0001.82
2023-05-06 23:17:00,,0825.0,4.99,0.00,29.8,28.4,00.0,38.1,31.3,09.4,0000.0,0013.98,0003.25,0001.83
2023-05-06 23:18:00,,0825.0,5.02,0.00,29.8,28.4,00.0,38.1,31.3,09.5,0000.0,0013.28,0003.21,0001.82
2023-05-06 23:19:00,,0825.0,5.00,0.00,29.8,28.5,00.0,38.1,31.3,09.5,0000.0,0011.12,0003.20,0001.84
2023-05-06 23:20:00,,0825.0,4.99,0.00,29.8,28.5,00.0,38.1,31.3,09.5,0000.0,0009.69,0003.18,0001.83
2023-05-06 23:21:00,,0825.0,5.00,0.00,29.8,28.5,00.0,38.1,31.4,09.4,0000.0,0009.16,0003.16,0001.84
2023-05-06 23:22:00,,0825.0,5.01,0.00,29.8,28.5,00.0,38.1,31.4,09.5,0000.0,0009.27,0003.20,0001.84
2023-05-06 23:23:00,,0825.0,5.00,0.00,29.8,28.5,00.0,38.2,31.4,09.3,0000.0,0010.01,0003.24,0001.85
2023-05-06 23:24:00,,0825.0,4.98,0.00,29.8,28.6,00.0,38.2,31.4,09.2,0000.0,0010.15,0003.24,0001.86
2023-05-06 23:25:00,,0824.9,5.02,0.00,29.9,28.6,00.0,38.2,31.4,08.9,0000.0,0009.84,0003.23,0001.85
2023-05-06 23:26:00,,0825.0,4.99,0.00,29.9,28.6,00.0,38.2,31.5,08.7,0000.0,0009.01,0003.22,0001.85
2023-05-06 23:27:00,,0825.0,4.98,0.00,29.9,28.6,00.0,38.2,31.5,08.9,0000.0,0009.14,0003.22,0001.87
2023-05-06 23:28:00,,0825.1,5.01,0.00,29.9,28.7,00.0,38.2,31.5,08.7,0000.0,0009.24,0003.20,0001.87
2023-05-06 23:29:00,,0825.1,5.00,0.00,29.9,28.7,00.0,38.2,31.5,08.7,0000.0,0009.35,0003.24,0001.87
2023-05-06 23:30:00,,0825.1,5.00,0.00,30.0,28.7,00.0,38.3,31.5,08.9,0000.0,0009.32,0003.26,0001.87
2023-05-06 23:31:00,,0825.1,4.99,0.00,30.0,28.7,00.0,38.3,31.5,08.9,0000.0,0009.14,0003.25,0001.87
2023-05-06 23:32:00,,0825.1,4.99,0.00,30.0,28.7,00.0,38.3,31.5,08.7,0000.0,0009.30,0003.25,0001.87
2023-05-06 23:33:00,,0825.1,5.01,0.00,30.0,28.8,00.0,38.3,31.5,08.8,0000.0,0009.32,0003.24,0001.88
2023-05-06 23:34:00,,0825.1,5.01,0.00,30.0,28.8,00.0,38.3,31.5,08.9,0000.0,0009.28,0003.22,0001.88
2023-05-06 23:35:00,,0825.1,5.00,0.00,30.0,28.8,00.0,38.3,31.6,09.0,0000.0,0009.01,0003.21,0001.88
2023-05-06 23:36:00,,0825.1,5.00,0.00,30.0,28.8,00.0,38.3,31.6,09.0,0000.0,0009.60,0003.22,0001.89
2023-05-06 23:37:00,,0825.1,4.99,0.00,30.1,28.8,00.0,38.4,31.6,08.9,0000.0,0009.43,0003.23,0001.89
2023-05-06 23:38:00,,0825.1,5.01,0.00,30.1,28.9,00.0,38.4,31.6,08.9,0000.0,0009.67,0003.20,0001.89
2023-05-06 23:39:00,,0825.1,5.01,0.00,30.1,28.8,00.0,38.4,31.7,09.1,0000.0,0010.61,0003.23,0001.89
2023-05-06 23:40:00,,0825.2,4.99,0.00,30.1,28.9,00.0,38.4,31.7,09.3,0000.0,0011.12,0003.30,0001.90
2023-05-06 23:41:00,,0825.2,4.99,0.00,30.1,28.9,00.0,38.4,31.7,09.2,0000.0,0011.64,0003.30,0001.90
2023-05-06 23:42:00,,0825.3,5.01,0.00,30.1,28.9,00.0,38.4,31.7,09.3,0000.0,0011.82,0003.30,0001.89
2023-05-06 23:43:00,,0825.3,5.02,0.00,30.1,28.8,00.0,38.4,31.7,09.5,0000.0,0011.42,0003.29,0001.88
2023-05-06 23:44:00,,0825.2,4.99,0.00,30.1,28.8,00.0,38.5,31.7,09.7,0000.0,0011.28,0003.25,0001.86
2023-05-06 23:45:00,,0825.3,4.98,0.00,30.1,28.8,00.0,38.5,31.7,10.0,0000.0,0010.64,0003.20,0001.87
2023-05-06 23:46:00,,0825.3,5.01,0.00,30.1,28.8,00.0,38.5,31.7,10.1,0000.0,0010.33,0003.20,0001.87
2023-05-06 23:47:00,,0825.4,5.01,0.00,30.2,28.8,00.0,38.5,31.7,09.9,0000.0,0009.75,0003.19,0001.87
2023-05-06 23:48:00,,0825.3,4.99,0.00,30.2,28.9,00.0,38.5,31.7,10.0,0000.0,0010.02,0003.16,0001.86
2023-05-06 23:49:00,,0825.4,5.02,0.00,30.2,28.9,00.0,38.5,31.7,09.6,0000.0,0009.70,0003.17,0001.86
2023-05-06 23:50:00,,0825.3,5.00,0.00,30.2,28.9,00.0,38.5,31.7,09.6,0000.0,0008.67,0003.14,0001.87
2023-05-06 23:51:00,,0825.4,5.00,0.00,30.2,28.9,00.0,38.5,31.8,09.7,0000.0,0008.41,0003.03,0001.86
2023-05-06 23:52:00,,0825.3,5.00,0.00,30.2,28.9,00.0,38.5,31.7,09.8,0000.0,0008.32,0003.05,0001.85
2023-05-06 23:53:00,,0825.3,5.00,0.00,30.2,28.9,00.0,38.6,31.8,09.4,0000.0,0008.07,0003.10,0001.85
2023-05-06 23:54:00,,0825.4,5.00,0.00,30.2,28.9,00.0,38.6,31.7,09.2,0000.0,0008.15,0003.09,0001.85
2023-05-06 23:55:00,,0825.3,5.00,0.00,30.2,28.9,00.0,38.6,31.8,09.5,0000.0,0008.00,0003.10,0001.85
2023-05-06 23:56:00,,0825.4,5.00,0.00,30.2,28.9,00.0,38.6,31.8,09.3,0000.0,0008.13,0003.12,0001.83
2023-05-06 23:57:00,,0825.3,5.00,0.00,30.2,28.9,00.0,38.6,31.8,09.3,0000.0,0008.17,0003.14,0001.83
2023-05-06 23:58:00,,0825.2,5.01,0.00,30.3,29.0,00.0,38.6,31.8,09.1,0000.0,0008.43,0003.14,0001.82
2023-05-06 23:59:00,,0825.3,5.00,0.00,30.3,29.0,00.0,38.6,31.8,09.0,0000.0,0008.64,0003.15,0001.84
